Regional Weather Roundup
Issued by NWS

Home | Current Version | Previous Version | Text Only | Print | Product List | Glossary On
Versions: 1 2 3 4 5 6 7 8 9 10 11 12 13 14 15 16 17 18 19 20 21 22 23 24 25 26 27 28 29 30 31 32 33 34 35 36 37 38 39 40 41 42
000
ASUS44 KBMX 261410
RWRAL

ALABAMA REGIONAL WEATHER ROUNDUP
NATIONAL WEATHER SERVICE BIRMINGHAM AL
800 AM CST FRI DEC 26 2014

NOTE: "FAIR" INDICATES FEW OR NO CLOUDS BELOW 12,000 FEET
WITH NO SIGNIFICANT WEATHER AND/OR OBSTRUCTIONS TO VISIBILITY.

THE REMARK "TC" DENOTES TEMPERATURE IN DEGREES CELSIUS.

ALZ001>011-014-016>018-020-261500-
NORTH ALABAMA

CITY           SKY/WX    TMP DP  RH WIND       PRES   REMARKS
MUSCLE SHOALS  MOSUNNY   35  32  88 E3        30.33R
HUNTSVILLE     PTSUNNY   37  33  85 E3        30.33R
DECATUR        MOSUNNY   35  34  96 CALM      30.34R
HALEYVILLE     FAIR      31  31 100 CALM      30.34R FOG
GADSDEN        PTSUNNY   30  27  86 CALM      30.36R
$$

ALZ012-013-022-023-030>036-040>044-261500-
WEST CENTRAL ALABAMA

CITY           SKY/WX    TMP DP  RH WIND       PRES   REMARKS
TUSCALOOSA     MOSUNNY   39  36  89 NE3       30.33R
$$

ALZ015-024>027-033>036-040>044-261500-
CENTRAL ALABAMA

CITY           SKY/WX    TMP DP  RH WIND       PRES   REMARKS
BIRMINGHAM     PTSUNNY   37  35  92 CALM      30.35R
MONTGOMERY     MOSUNNY   39  35  86 CALM      30.35R
SHELBY CO ARPT SUNNY     38  35  89 NE3       30.34R
MAXWELL AFB    MOSUNNY   38  38  98 N6        30.34R WCI  34
GREENVILLE     FAIR      41  37  86 N3        30.31R
$$

ALZ019-021-028-029-037-038-045>048-261500-
EAST CENTRAL ALABAMA

CITY           SKY/WX    TMP DP  RH WIND       PRES   REMARKS
ANNISTON       MOSUNNY   35  32  88 E5        30.35R WCI  31
ALEXANDER CITY SUNNY     37  33  85 CALM      30.33R
AUBURN         SUNNY     39  34  81 E5        30.33S
$$

ALZ051>064-261500-
SOUTHWEST ALABAMA

CITY           SKY/WX    TMP DP  RH WIND       PRES   REMARKS
MOBILE         PTSUNNY   43  40  89 N7        30.27R
BROOKLEY FIELD PTSUNNY   47  43  86 N7        30.28R
EVERGREEN      MOSUNNY   38  35  89 NW3       30.32R
$$

ALZ049-050-065>069-261500-
SOUTHEAST ALABAMA

CITY           SKY/WX    TMP DP  RH WIND       PRES   REMARKS
DOTHAN         SUNNY     43  38  82 CALM      30.34R
OZARK          SUNNY     39  36  89 NE3       30.31R
TROY           SUNNY     38  35  89 CALM      30.32R
EUFAULA        FAIR      39  36  89 CALM      30.30S
$$


USA.gov is the U.S. government's official web portal to all federal, state and local government web resources and services.